Location: ?ejkovice
(49.0137°N, 14.3821°E)
Time: 19:49:00
(UTC+00:00)

Helios 1A Rocket - Pass Details

Date: 23 May 2024
Orbit: 520 x 543 km, 98.3° (Epoch: 20 June)

Event Time Altitude Azimuth Distance (km) Brightness Sun altitude
Exits shadow 00:10:19 48° 186° (S) 711 2.9 -18.6°
Maximum altitude 00:11:18 74° 256° (WSW) 563 2.7 -18.5°
Drops below altitude 10° 00:15:10 10° 342° (NNW) 1,794 6.2 -18.3°
Sets 00:17:17 0° 345° (NNW) 2,685 7.3 -18.2°
